EDT,Max TemperatureF,Mean TemperatureF,Min TemperatureF,Max Dew PointF,MeanDew PointF,Min DewpointF,Max Humidity, Mean Humidity, Min Humidity, Max Sea Level PressureIn, Mean Sea Level PressureIn, Min Sea Level PressureIn, Max VisibilityMiles, Mean VisibilityMiles, Min VisibilityMiles, Max Wind SpeedMPH, Mean Wind SpeedMPH, Max Gust SpeedMPH,PrecipitationIn, CloudCover, Events, WindDirDegrees
2012-10-1,58,53,48,52,49,46,100,89,77,29.96,29.76,29.61,10,10,9,17,6,24,0.05,8,Rain,247
2012-10-2,64,54,44,57,50,45,100,84,67,30.11,30.03,29.96,10,6,0,8,1,10,0.01,5,Fog-Rain,176
2012-10-3,62,59,56,61,58,55,100,95,90,30.19,30.13,30.09,10,4,0,7,2,9,0.26,8,Fog-Rain,152
2012-10-4,63,56,49,61,58,51,100,95,90,30.19,30.11,30.06,10,7,0,10,3,14,0.07,6,Fog-Rain,175
2012-10-5,73,60,47,58,53,47,100,71,41,30.06,30.01,29.90,10,5,0,15,5,18,0.01,5,Fog,190
2012-10-6,66,53,39,57,50,36,100,83,65,29.96,29.82,29.72,10,9,3,18,6,25,0.13,6,Rain,250
2012-10-7,51,43,35,43,38,35,100,81,61,30.12,30.06,29.96,10,9,6,9,2,13,0.18,5,Rain,340
2012-10-8,51,43,34,42,38,31,100,73,46,30.37,30.21,30.10,10,10,4,10,1,14,0.05,6,Rain,345
2012-10-9,53,43,32,45,38,33,100,83,66,30.37,30.30,30.14,10,5,0,15,4,20,0.00,7,Fog,163
2012-10-10,52,47,42,52,46,38,100,88,76,30.16,29.91,29.75,10,6,1,22,9,31,0.38,8,Rain,184
2012-10-11,51,45,38,40,32,27,92,66,39,30.11,30.00,29.82,10,10,7,24,9,36,0.02,7,Rain,268
2012-10-12,50,39,27,39,30,21,93,72,50,30.42,30.16,29.95,10,10,4,24,9,37,0.03,6,Rain-Snow,294
2012-10-13,47,36,24,30,24,21,88,63,37,30.49,30.40,30.25,10,10,10,15,4,20,0.01,2,Rain,246
2012-10-14,53,45,36,52,43,30,100,88,76,30.25,30.05,29.88,10,10,6,13,7,17,0.16,8,Rain,176
2012-10-15,65,58,51,58,53,44,100,86,71,29.86,29.68,29.63,10,8,1,17,7,22,0.28,6,Rain,191
2012-10-16,52,43,33,44,35,31,85,76,67,29.95,29.76,29.64,10,10,10,21,10,31,T,6,Rain,304
2012-10-17,57,42,27,39,32,27,100,70,40,30.05,30.00,29.95,10,7,0,7,1,9,0.00,2,Fog,90
2012-10-18,65,49,33,44,37,32,100,66,32,30.12,30.07,30.02,10,10,9,20,7,24,0.00,0,,166
2012-10-19,59,53,47,58,52,45,100,90,80,30.09,29.92,29.75,10,5,0,13,4,20,0.09,8,Fog-Rain,134
2012-10-20,69,56,43,59,53,41,100,70,39,29.76,29.70,29.62,10,7,0,10,6,,0.00,5,Fog-Rain,205
2012-10-21,54,47,39,43,40,37,82,71,59,29.93,29.85,29.76,10,10,9,22,10,31,0.01,6,Rain,259
2012-10-22,56,48,40,42,39,37,83,69,55,30.07,29.98,29.91,10,10,10,25,9,36,T,4,Rain,312
2012-10-23,55,43,31,41,39,32,96,73,50,30.23,30.14,30.06,10,10,1,10,4,16,0.00,3,,315
2012-10-24,58,43,27,36,29,25,100,64,28,30.30,30.24,30.19,10,6,0,6,0,7,0.00,3,Fog,20
2012-10-25,61,47,33,43,36,30,89,64,38,30.32,30.28,30.24,10,10,10,16,4,20,0.00,3,,183
2012-10-26,67,53,39,52,47,40,100,79,58,30.26,30.20,30.13,10,10,8,14,3,17,0.00,1,,181
2012-10-27,65,54,43,54,48,43,100,86,72,30.16,30.12,30.04,10,4,0,13,2,17,0.00,4,Fog,195
2012-10-28,61,53,45,52,47,42,100,76,51,30.09,30.04,29.93,10,5,0,9,2,13,0.00,3,Fog,85
2012-10-29,60,54,47,55,48,43,100,82,64,29.91,29.68,29.38,10,9,2,23,8,33,0.59,7,Rain,46
2012-10-30,65,58,51,56,54,51,100,82,63,29.60,29.53,29.42,10,7,2,25,8,35,1.16,8,Rain,128
2012-10-31,58,50,42,54,46,39,100,86,71,29.57,29.51,29.46,10,6,1,22,7,31,0.05,6,Rain,171